Simultaneous Nadir Overpasses (SNOs) Predictions

Prediction of SNOs between METOP-A and TERRA Satellite Orbit:

Table of predicted SNOs for the next 14.0 days since TLE Epoch: 4/12/2015
Index Date (METOP-A) Time (METOP-A) Lat,Lon (METOP-A) SZA (METOP-A ) Date (TERRA) Time (TERRA) Lat,Lon (TERRA) SZA (TERRA ) Distance(km) Time Diff (sec)
1 04/13/2015 02:27:16 -81.33, 11.06 104.69 04/13/2015 02:27:41 -81.33, 11.06 104.67 0.13 25
2 04/13/2015 03:17:55 81.34, 178.95 75.37 04/13/2015 03:17:07 81.34, 178.82 75.34 2.03 48
3 04/15/2015 22:01:36 -81.34, 77.54 105.66 04/15/2015 22:01:54 -81.33, 77.40 105.68 2.52 18
4 04/15/2015 22:52:16 81.34,-114.98 74.35 04/15/2015 22:51:20 81.33,-114.86 74.33 2.03 56
5 04/18/2015 17:35:55 -81.34, 143.97 106.63 04/18/2015 17:36:05 -81.33, 143.93 106.63 0.75 10
6 04/18/2015 18:26:34 81.34, -48.18 73.43 04/18/2015 18:25:31 81.33, -48.37 73.37 3.22 63
7 04/21/2015 13:10:14 -81.34,-149.27 107.53 04/21/2015 13:10:16 -81.35,-149.35 107.54 1.51 2
8 04/21/2015 14:00:54 81.34, 18.17 72.47 04/21/2015 13:59:42 81.35, 18.32 72.46 2.57 72
9 04/24/2015 07:53:54 81.33, 109.20 71.49 04/24/2015 07:55:01 81.33, 109.15 71.51 0.88 67




NCC Satellite Simultaneous Nadir Overpasses (SNOs) Prediction Service
